Location: *
(38.3000°N, 24.5000°E)
Time: 10:52:55
(UTC+00:00)

Daily predictions for brighter satellites

Satellite Brightness Start Highest point End
(mag) Time Altitude Azimuth Time Altitude Azimuth Time Altitude Azimuth
CSL-04 Rocket 4.5 16:00:57 10° SE 16:05:41 30° ENE 16:10:24 10° N
Cosmos 1626 4.0 16:05:22 10° NNW 16:08:49 37° W 16:12:15 10° SSW
Cosmos 1726 2.3 16:05:32 10° SSE 16:09:03 48° E 16:12:35 10° NNE
USA 116 4.5 16:08:07 10° NE 16:10:51 24° E 16:13:44 10° SSE
Lacrosse 5 rocket 1.5 16:09:02 10° NW 16:12:49 70° SW 16:16:48 10° SSE
Cosmos 2239 Rocket 4.4 16:06:44 10° N 16:12:54 78° E 16:19:01 10° S
Okean-O 2.7 16:09:42 10° SSE 16:14:07 89° WSW 16:18:35 10° NNW
Cosmos 292 Rocket 3.7 16:09:59 10° SSW 16:14:43 77° ESE 16:19:28 10° NNE
Cosmos 1939 Rocket 4.5 16:17:18 10° ESE 16:19:41 16° ENE 16:22:07 10° NNE
Cosmos 1821 Rocket 4.2 16:15:26 10° N 16:21:34 80° W 16:27:44 10° S
COSMO-SKYMED 1 2.5 16:17:19 10° NNE 16:21:39 67° E 16:25:58 10° S
Cosmos 1605 Rocket 4.3 16:16:18 10° N 16:22:05 41° ENE 16:27:48 10° SSE
Cosmos 1328 3.9 16:18:55 10° N 16:22:46 49° E 16:26:35 10° SSE
CZ-4C R/B 4.1 16:18:39 10° NW 16:25:54 50° WSW 16:33:52 10° S
Cosmos 482 Debris 4.3 16:21:17 10° NW 16:26:15 55° NNE 16:28:49 14° ESE
Cosmos 1833 Rocket 3.6 16:22:21 10° N 16:27:10 28° ENE 16:31:56 10° ESE
ATLAS 3B R/B 4.0 16:23:24 10° SE 16:27:10 16° ESE 16:29:33 13° E
ASTEX 1 3.4 16:22:21 10° N 16:27:19 75° E 16:32:18 10° S
Cosmos 1727 Rocket 4.5 16:22:48 10° SSE 16:28:17 35° E 16:33:46 10° NNE
Meteor 2-10 3.9 16:23:55 10° S 16:29:00 81° E 16:34:03 10° N
Cosmos 1934 Rocket 4.0 16:22:47 10° N 16:29:10 75° E 16:35:31 10° SSE
Cosmos 1953 Rocket 4.0 16:26:43 10° NNW 16:31:03 66° W 16:35:19 10° S
Envisat 3.0 16:26:15 10° SSE 16:31:19 85° ENE 16:36:25 10° NNW
Cosmos 1461 4.3 16:29:58 10° N 16:33:03 20° NE 16:34:34 17° ENE
Cosmos 1271 Rocket 4.2 16:32:07 10° NNW 16:35:55 43° W 16:39:43 10° SSW
OAO 3 Rocket 3.6 16:31:14 10° W 16:36:03 58° S 16:39:53 16° ESE
CENTAUR R/B 3.7 16:33:35 10° SE 16:37:18 18° ESE 16:38:44 16° E
Cosmos 1535 Rocket 4.5 16:31:47 10° N 16:38:00 88° E 16:44:07 10° S
CZ-2D R/B 4.1 16:37:22 10° SE 16:40:41 28° ENE 16:44:03 10° NNE
YAOGAN 6 2.5 16:39:06 10° SSE 16:42:45 78° ENE 16:46:25 10° N
CZ-4 R/B 1.4 16:42:03 10° SSE 16:46:12 88° ENE 16:50:26 10° NNW
Cosmos 1300 3.6 16:44:04 10° SSE 16:47:18 27° E 16:49:19 17° NE
Unknown 2.3 16:44:52 10° NW 16:47:31 83° NE 16:48:34 33° SE
Lacrosse 5 3.2 16:44:56 10° NNW 16:48:59 23° NNE 16:50:43 19° ENE
CSL-04 Debris 4.1 16:45:40 10° SSE 16:51:05 76° ENE 16:56:34 10° N
Cosmos 2082 Rocket 2.9 16:48:30 10° N 16:53:34 32° ENE 16:55:49 24° E
USA 238 DEB 3.6 16:48:39 10° SSW 16:55:16 74° ESE 17:02:06 10° NE
USA 238 3.6 16:48:45 10° SSW 16:55:22 73° ESE 17:02:13 10° NE
DMSP B5D1-3 4.5 16:51:42 10° NNE 16:56:49 65° ESE 17:01:54 10° S
Abrixas rocket 3.8 16:54:29 10° W 16:57:08 26° NNW 16:58:34 18° NNE
Cosmos 1812 Rocket 3.6 16:53:38 10° S 16:57:55 54° E 17:02:16 10° NNE
Delta 2 Rocket 3.6 16:57:37 10° SW 17:00:50 35° SSE 17:01:26 32° SE
SL-4 R/B 4.3 16:58:14 10° W 17:01:00 20° SW 17:03:39 10° S
Cosmos 1076 Rocket 4.1 16:58:28 10° NNE 17:02:29 35° ENE 17:02:52 34° E
COSMOS 2406 3.6 16:58:30 10° NNW 17:04:14 68° WSW 17:09:53 10° S
Cosmos 1703 4.1 17:00:30 10° NNW 17:04:20 53° W 17:08:07 10° S
Cosmos 2100 Rocket 4.4 16:59:35 10° N 17:05:14 36° ENE 17:08:16 23° SE
YAOGAN 1 2.8 17:03:35 10° S 17:07:53 70° WSW 17:12:13 10° NNW
EO 1 Delta rocket 3.9 17:04:11 10° S 17:08:47 80° W 17:13:36 10° N
Ariane Rocket 3.0 17:09:15 12° SSE 17:13:57 58° ENE 17:18:58 10° N
Unknown 3.5 17:11:33 10° NW 17:14:07 46° N 17:14:07 46° N
Cosmos 1153 Rocket 4.3 17:13:13 10° N 17:19:22 78° E 17:25:31 10° S
NOSS 3-2 (A) 3.3 17:14:12 10° SSW 17:19:51 90° NNW 17:25:35 13° NNE
Shenzhou-11 Module 3.9 17:26:08 10° WNW 17:27:34 25° NW 17:27:34 25° NW
Cosmos 2278 Rocket 3.5 17:25:00 10° SW 17:30:17 40° WNW 17:35:38 10° N
Cosmos 2058 4.4 17:27:01 10° N 17:28:58 25° NNE 17:28:58 25° NNE
Cosmos 2297 3.6 17:25:56 10° S 17:31:33 64° ESE 17:33:51 36° NE
MOS 1 4.1 17:41:22 57° SE 17:42:23 70° ENE 17:48:01 10° N
NOSS 3-2 (C) 3.2 17:38:33 10° SSW 17:44:12 87° SE 17:46:35 40° NE
IRS-1A Rocket 4.2 17:45:40 24° S 17:49:03 78° WSW 17:54:35 10° NNW
Cosmos 2061 Rocket 4.2 17:44:01 10° N 17:49:04 49° NE 17:49:04 49° NE
Cosmos 1939 Rocket 4.3 17:52:11 21° SSW 17:54:17 36° W 17:58:01 10° NNW
Cosmos 44 3.4 17:50:29 10° SW 17:55:05 70° WSW 17:55:05 70° WSW
ADEOS Rocket 3.3 17:52:00 10° NNE 17:59:36 66° E 18:06:32 10° S
Cosmos 1459 Rocket 3.9 17:54:40 10° N 18:00:56 86° W 18:02:50 48° S
H-2A R/B 3.7 18:04:36 24° N 18:04:36 24° N 18:06:46 10° N
Cosmos 1833 Rocket 3.9 18:05:59 10° NW 18:11:09 39° WSW 18:13:53 24° SSW
ATLAS 3B R/B 2.5 18:10:14 10° SSW 18:16:54 83° W 18:16:54 83° W
CENTAUR R/B 2.8 18:21:12 10° SW 18:26:01 58° W 18:26:01 58° W
Cosmos 1802 Rocket 4.3 18:22:55 10° NNW 18:29:15 63° W 18:29:16 63° W
Lacrosse 5 3.5 18:27:20 10° NW 18:29:56 30° NW 18:29:56 30° NW
Cosmos 2082 Rocket 3.5 18:32:32 10° NW 18:37:37 34° WSW 18:37:44 34° WSW
BREEZE M DEB (TANK) 4.5 18:36:30 10° WNW 18:38:41 36° W 18:38:41 36° W
